EW0541 Weather Reports


time (UTC)temp
F
wind
direction
speed
knots
gust
knots
rain 1hr
in
rain 24hr
in
rain mn
in
humidity
%
barometer
mb
20260507030041 60 331 1.7 0.0 0.00 0.00 0.19 78 1008.0
20260507024550 60 232 1.7 0.0 0.00 0.00 0.19 77 1008.0
20260507023039 60 360 1.7 0.0 0.00 0.00 0.19 77 1007.7
20260507021536 60 322 1.7 0.0 0.00 0.00 0.19 77 1007.7
20260507020037 61 5 1.7 0.0 0.00 0.00 0.19 77 1007.8
20260507014535 61 257 2.6 0.0 0.00 0.00 0.19 77 1008.0
20260507013038 62 300 1.7 0.0 0.00 0.00 0.19 78 1008.0
20260507011534 62 290 1.7 0.0 0.00 0.00 0.19 78 1007.8
20260507010037 63 298 1.7 0.0 0.00 0.00 0.19 79 1007.6
20260507004529 65 284 1.7 0.0 0.00 0.00 0.19 81 1007.1
20260507003028 65 266 1.7 0.0 0.00 0.00 0.19 83 1006.8
20260507001530 66 254 0.9 0.0 0.00 0.00 0.19 81 1006.7
20260507000029 67 263 1.7 0.0 0.00 0.00 0.19 79 1006.1
20260506234543 67 298 0.9 0.0 0.00 0.00 0.19 78 1005.9
20260506233027 67 254 0.9 0.0 0.00 0.00 0.19 78 1005.7
20260506231525 67 228 0.9 0.0 0.00 0.00 0.19 77 1005.7
20260506230025 68 273 0.9 0.0 0.00 0.00 0.19 77 1005.6
20260506224529 68 262 0.0 0.0 0.00 0.00 0.19 77 1005.6
20260506223024 68 290 1.7 0.0 0.00 0.00 0.19 77 1005.5
20260506221524 68 272 0.0 0.0 0.00 0.00 0.19 78 1005.6
20260506220032 69 277 0.0 0.0 0.00 0.00 0.19 77 1005.2
20260506214523 69 273 0.0 0.0 0.00 0.00 0.19 77 1005.2
20260506213022 69 275 0.9 0.0 0.00 0.00 0.19 77 1005.2
20260506211522 69 267 0.9 0.0 0.00 0.00 0.19 76 1004.9
20260506210020 68 309 0.9 0.0 0.00 0.00 0.19 79 1004.8
20260506204518 67 186 1.7 0.0 0.00 0.00 0.19 78 1004.8
20260506203018 67 215 1.7 0.0 0.00 0.00 0.19 78 1004.9
20260506201517 67 194 1.7 0.0 0.00 0.00 0.19 78 1004.8
20260506200016 68 197 2.6 0.0 0.00 0.00 0.19 77 1004.9
20260506194519 67 187 2.6 0.0 0.00 0.00 0.19 78 1004.9
20260506193013 67 263 1.7 0.0 0.00 0.00 0.19 79 1005.1
20260506191512 66 293 1.7 0.0 0.00 0.00 0.19 79 1005.1
20260506190012 66 225 1.7 0.0 0.00 0.00 0.19 81 1005.2
20260506184510 65 225 1.7 0.0 0.00 0.00 0.19 81 1005.2
20260506183010 64 176 1.7 0.0 0.00 0.00 0.19 82 1005.5
20260506181508 64 185 1.7 0.0 0.00 0.00 0.19 85 1005.6
20260506180008 62 277 0.9 0.0 0.00 0.00 0.19 86 1005.8
20260506174508 61 186 0.9 0.0 0.00 0.00 0.19 86 1006.1
20260506173008 61 90 0.9 0.0 0.00 0.00 0.19 86 1006.0
20260506171507 61 175 1.7 0.0 0.00 0.00 0.19 87 1006.0
20260506170006 61 206 1.7 0.0 0.00 0.00 0.18 87 1005.8
20260506164512 61 144 1.7 0.0 0.00 0.00 0.18 88 1005.9
20260506163005 61 188 1.7 0.0 0.00 0.00 0.18 88 1006.1
20260506161505 61 187 0.9 0.0 0.00 0.00 0.18 88 1006.2
20260506160004 61 313 0.9 0.0 0.00 0.00 0.18 88 1006.1
20260506154510 61 188 0.9 0.0 0.00 0.00 0.18 88 1005.6
20260506153002 61 115 0.9 0.0 0.00 0.00 0.17 87 1006.1
20260506151501 61 183 0.9 0.0 0.00 0.00 0.14 87 1006.8
20260506150105 61 177 0.9 0.0 0.00 0.00 0.13 87 1006.8
20260506144607 61 269 0.9 0.0 0.00 0.00 0.10 86 1007.0
20260506143059 62 153 0.9 0.0 0.00 0.00 0.08 86 1006.6
20260506141557 62 182 0.9 0.0 0.00 0.00 0.07 85 1006.6
20260506140057 62 173 0.9 0.0 0.00 0.00 0.06 84 1006.6
20260506134554 62 257 0.0 0.0 0.00 0.00 0.03 83 1006.6
20260506133056 63 236 0.9 0.0 0.00 0.00 0.01 82 1006.7
20260506131559 63 167 0.0 0.0 0.00 0.00 0.01 81 1006.7
20260506130053 64 254 0.9 0.0 0.00 0.00 0.00 79 1006.7
20260506124548 64 317 0.9 0.0 0.00 0.00 0.00 78 1006.7
20260506123047 64 231 0.0 0.0 0.00 0.00 0.00 78 1006.8
20260506121545 64 188 0.0 0.0 0.00 0.00 0.00 78 1007.0
20260506120045 64 184 0.0 0.0 0.00 0.00 0.00 77 1006.6
20260506114543 64 173 0.9 0.0 0.00 0.00 0.00 76 1006.4
20260506113043 65 153 0.9 0.0 0.00 0.00 0.00 74 1006.4
20260506111542 65 277 0.9 0.0 0.00 0.00 0.00 74 1006.4
20260506110041 65 178 0.9 0.0 0.00 0.00 0.00 74 1006.1
20260506104546 65 260 0.9 0.0 0.00 0.00 0.00 73 1005.9
20260506103040 65 184 0.9 0.0 0.00 0.00 0.00 73 1005.8
20260506101537 65 154 1.7 0.0 0.00 0.00 0.00 72 1005.7
20260506100039 65 250 0.9 0.0 0.00 0.00 0.00 72 1005.7
20260506094548 66 186 0.9 0.0 0.00 0.00 0.00 71 1005.6
20260506093039 65 179 0.9 0.0 0.00 0.00 0.00 71 1005.6
20260506091535 65 185 0.0 0.0 0.00 0.00 0.00 70 1005.8
20260506090035 65 95 0.9 0.0 0.00 0.00 0.00 69 1005.9
20260506084534 65 151 0.9 0.0 0.00 0.00 0.00 68 1005.8
20260506083033 66 78 0.0 0.0 0.00 0.00 0.00 67 1005.9
20260506081534 66 79 0.0 0.0 0.00 0.00 0.00 66 1005.8
20260506073025 68 180 0.9 0.0 0.00 0.00 0.00 61 1005.9
20260506071525 68 109 0.0 0.0 0.00 0.00 0.00 61 1006.0
20260506061517 68 12 0.0 0.0 0.00 0.00 0.00 58 1006.5
20260506044510 68 169 0.9 0.0 0.00 0.00 0.00 54 1007.1
20260506043008 69 171 0.9 0.0 0.00 0.00 0.00 54 1007.1
20260506041512 69 153 0.0 0.0 0.00 0.00 0.00 53 1007.2
20260506040008 69 50 0.9 0.0 0.00 0.00 0.00 52 1007.1
20260506034504 69 181 0.9 0.0 0.00 0.00 0.00 52 1007.1
20260506033005 69 184 0.9 0.0 0.00 0.00 0.00 52 1007.0
20260506031503 69 83 0.9 0.0 0.00 0.00 0.00 53 1007.1